DRAGON CRS-18

Last updated on Thu Aug 29 2019 00:02:10 GMT+0000 (Coordinated Universal Time)

1 44446U 19044A 19239.71730418 -.00001792 00000-0 -19835-4 0 9996 2 44446 51.6451 6.4496 0012921 282.6291 225.0377 15.53827763 5097
UTC large
Height (km)
Speed (km/s)
/
Latitude / Longitude
Inclination (degrees)
Orbital Period (minutes)
Azimuth
Elevation
Range (km)
Doppler Factor

Next 0 passes for location: London (51.5072 / 0.1276)

Sorry there are no passes over London.